www.pogodaiklimat.ru
Время
(UTC), дата
00 14.01
03 14.01
06 14.01
09 14.01
12 14.01
15 14.01
18 14.01
21 14.01
00 15.01
03 15.01
06 15.01
09 15.01
12 15.01
15 15.01
18 15.01
21 15.01
00 16.01
03 16.01
06 16.01
09 16.01
12 16.01
15 16.01
18 16.01
21 16.01
00 17.01
03 17.01
06 17.01
09 17.01
12 17.01
15 17.01
18 17.01
21 17.01
00 18.01
03 18.01
06 18.01
09 18.01
12 18.01
15 18.01
18 18.01
21 18.01
00 19.01
03 19.01
06 19.01
09 19.01
12 19.01
15 19.01
18 19.01
21 19.01
00 20.01
03 20.01
06 20.01
09 20.01
12 20.01
15 20.01
18 20.01
Ветер
(напр.,м/с)
Видим. Явления Облачность Т
(С)
Тd
(С)
f
(%)
Тe
(С)
Тes
(С)
Комфортность P
(гПа)
Po
(гПа)
Тmin
(С)
Tmax
(С)
R
(мм)
R24
(мм)
S
(см)
З 3 10 км 6/0
[Ac trans]
-16.2 -23.0 56 -23 -23 по сезону 1025.7 1023.5
ЮЗ 1 10 км 6/0
[Ac trans]
-17.7 -22.3 67 -21 -21 по сезону 1025.5 1023.3 -17.7 28
Ю 1 20 км 8/0
[Ac trans Ci fib]
-17.2 -21.1 72 -20 -20 тепло 1026.5 1024.3 -18.4
СЗ 5 20 км 10/0
[Ac trans Ci fib]
-15.6 -20.0 69 -25 -25 по сезону 1026.0 1023.8
З 3 10 км 10/0
[Ac und]
-16.9 -21.1 70 -24 -24 по сезону 1026.6 1024.4
З 3 10 км 10/0
[Ac und]
-16.7 -21.1 69 -24 -24 по сезону 1026.5 1024.3 -15.0
Ю 2 10 км 5/0
[Ci fib]
-20.3 -23.9 73 -26 -26 по сезону 1026.7 1022.4
ЮЗ 1 10 км 10/0
[Ci fib]
-21.4 -24.8 74 -25 -25 по сезону 1025.8 1023.6
Ю 2 10 км ясно -25.0 -28.8 71 -32 -32 опасность
обморожения
1025.4 1023.1
Ю 2 10 км 5/0
[Ac trans Ci fib]
-24.5 -28.5 69 -31 -31 опасность
обморожения
1024.0 1021.7 -25.2 28
Ю 2 20 км 10/0
[Ac und]
-24.2 -28.0 71 -31 -31 опасность
обморожения
1022.4 1020.1
Ю 3 20 км 10/0
[Ac und]
-23.5 -27.2 72 -32 -32 опасность
обморожения
1021.3 1019.0
Ю 2 10 км 10/0
[Ac trans Ci fib]
-23.4 -26.9 73 -30 -30 по сезону 1020.0 1017.7
Ю 1 10 км 10/0
[Ac und]
-23.2 -26.6 74 -27 -27 по сезону 1017.9 1015.6 -23.1
ЮВ 1 4000 м слаб. снег 10/8 300 м
[Frnb Ac As]
-23.4 -26.7 74 -27 -27 по сезону 1015.8 1013.6
СВ 1 4000 м слаб. ливневой снег 10/5 450 м
[Cb calv Ac trans]
-26.3 -29.7 73 -30 -30 по сезону 1014.7 1012.4
СВ 1 4000 м слаб. снег 10/8 270 м
[Frnb Ac As]
-23.6 -26.9 74 -27 -27 по сезону 1013.9 1011.6
С 1 10 км {снег} 9/0
[Ac trans Ci fib]
-24.4 -27.7 74 -28 -28 по сезону 1013.0 1011.0 -26.5 0.3 28
СЗ 1 10 км слаб. снег 10/8 300 м
[St As op]
-23.6 -27.0 73 -27 -27 по сезону 1014.0 1011.7
СВ 1 10 км снежные зёрна 10/8 330 м
[St Ac lent]
-22.5 -25.9 74 -26 -26 по сезону 1013.7 1011.5
С 1 4000 м слаб. снег 10/4 240 м
[Frnb Ac As]
-22.3 -25.6 74 -26 -26 по сезону 1013.3 1011.1
СЗ 1 4000 м слаб. снег 10/0
[Ac As]
-23.3 -26.4 76 -27 -27 по сезону 1012.6 1010.4 -22.1 0.9
С 2 10 км {снег} 4/0
[Ac trans]
-25.5 -28.2 78 -32 -32 опасность
обморожения
1011.8 1009.5
С 2 10 км ясно -24.5 -27.8 74 -31 -31 опасность
обморожения
1009.8 1007.5
СВ 3 10 км ясно -24.9 -28.3 73 -33 -33 опасность
обморожения
1007.6 1005.3
СВ 2 4000 м слаб. снег 10/5 240 м
[Frnb As trans]
-27.7 -31.4 71 -35 -35 опасность
обморожения
1005.5 1003.2 -29.2 0.0 28
СВ 6-10
{10}
10 км слаб. ливневой снег 10/6 420 м
[Cb calv Ac trans]
-24.9 -28.8 70 -37 -37 опасность
обморожения
1002.9 1000.7
СВ 8-12
{13}
10 км слаб. ливневой снег {метель} 10/8 420 м
[Cb calv Ac trans]
-24.8 -29.0 68 -39 -39 опасность
обморожения
1001.4 999.2
СВ 6-11
{14}
10 км позёмок {ливн. снег} 10/5 400 м
[Cb calv Ac trans Cc]
-25.9 -30.6 65 -38 -38 опасность
обморожения
1000.6 998.3
СВ 7-11
{11}
4000 м слаб. снег {метель} 10/8 240 м
[Frnb Ac As]
-25.8 -30.2 66 -39 -39 опасность
обморожения
999.3 997.0 -24.2 0.3
СВ 5
{14}
10 км позёмок {снег} 10/5 270 м
[Frnb Ac As]
-26.5 -30.9 66 -38 -38 опасность
обморожения
998.5 996.2
СВ 5
{11}
4000 м слаб. снег {метель} 10/0
[Ac As]
-26.6 -31.3 64 -38 -38 опасность
обморожения
998.6 996.3
СВ 3
{11}
4000 м слаб. снег {метель} 10/5 270 м
[Frnb Ac As]
-26.7 -31.0 67 -36 -36 опасность
обморожения
998.9 996.6
С 2 4000 м слаб. снег 10/6 180 м
[Frnb As op]
-26.0 -29.8 70 -33 -33 опасность
обморожения
999.4 997.1 -26.9 0.6 27
СЗ 2 4000 м слаб. снег 10/10 180 м
[Ns]
-25.0 -28.7 71 -32 -32 опасность
обморожения
1000.3 998.0
С 1 10 км слаб. снег 10/8 210 м
[Frnb As op]
-24.4 -27.9 73 -28 -28 холодно 1001.8 999.6
СВ 1 4000 м слаб. снег 10/6 240 м
[Frnb As trans]
-25.3 -28.9 72 -29 -29 холодно 1003.5 1001.2
СВ 1 4000 м слаб. снег 10/8 300 м
[Frnb Ac As]
-25.4 -28.9 72 -29 -29 холодно 1005.2 1002.9 -24.4 1
СВ 1 4000 м слаб. снег 10/8 300 м
[Frnb Ac As]
-26.3 -30.1 70 -30 -30 очень
холодно
1007.0 1004.7
ЮВ 1 4000 м слаб. снег 10/8 210 м
[Frnb Ac As]
-25.2 -29.1 70 -29 -29 холодно 1009.4 1007.1
СВ 2 4000 м слаб. снег 10/8 240 м
[Frnb Ac As]
-23.4 -26.6 75 -30 -30 очень
холодно
1010.8 1008.5
З 1 10 км в посл. час снег 10/3 1000 м
[Sc diur, vesp Ac trans]
-27.5 -31.3 70 -31 -31 опасность
обморожения
1012.6 1010.3 -28.7 0.5 28
штиль 0 20 км {снег} 9/0
[Ac trans Ci fib]
-30.0 -34.1 67 -30 -30 очень
холодно
1014.6 1012.3 -30.0
штиль 0 20 км 9/0
[Ci fib]
-29.1 -33.0 69 -29 -29 очень
холодно
1016.3 1014.0
штиль 0 10 км 4/0
[Ci fib]
-33.7 -38.1 64 -34 -34 опасность
обморожения
1017.4 1015.0
СВ 1 10 км ясно -35.5 -40.2 62 -40 -40 опасность
обморожения
1018.3 1015.9 -26.5
штиль 0 10 км ясно -36.4 -41.3 60 -36 -36 опасность
обморожения
1018.7 1016.3
СВ 1 4000 м слаб. ливневой снег 10/5 450 м
[Cb calv Ac und]
-30.0 -34.1 67 -34 -34 опасность
обморожения
1019.1 1016.8
С 1 10 км в посл. час ливневой снег 10/0
[Cs]
-29.1 -33.1 68 -33 -33 опасность
обморожения
1019.6 1017.3
СВ 3 4000 м снежные зёрна 10/6 330 м
[St Cs]
-27.3 -31.1 70 -36 -36 опасность
обморожения
1020.5 1018.2 -37.1 0.2 28
СВ 5 10 км слаб. снег 10/8 270 м
[Frnb As op]
-28.6 -32.6 68 -41 -41 опасность
обморожения
1021.4 1019.1
СВ 5 10 км слаб. снег {метель} 10/6 300 м
[Frnb As trans Ci sp]
-29.9 -34.0 67 -42 -42 опасность
обморожения
1022.3 1020.0
СВ 5 4000 м слаб. снег {метель} 10/8 270 м
[Frnb As trans]
-30.7 -34.9 66 -43 -43 опасность
обморожения
1023.3 1021.0
СВ 6-10
{11}
4000 м слаб. снег {метель} 10/8 330 м
[Frnb As trans]
-31.1 -35.5 65 -45 -45 опасность
обморожения
1024.0 1021.7 -27.2 1
СВ 7-10
{11}
4000 м слаб. снег {метель} 10/8 330 м
[Frnb Ac As]
-31.6 -36.0 65 -47 -47 опасность
обморожения
1024.4 1022.0
Местоположение метеостанции Салехард (Ямало-Ненецкий АО, Россия): широта 66.53 долгота 66.67 высота над уровнем моря 16 м.
В архиве по умолчанию представлена погода в Салехарде за последнюю неделю. Архивные данные за месяц целиком и за предыдущие месяцы, начиная с января 2011 года, Вы можете получить, выбрав интересующий диапазон дат из раскрывающегося списка и нажав кнопку "Найти!".
*Определитесь, кто Вы:
Внимание! Время в таблицах - всемирное. Для получения местного времени необходимо прибавить поправку, которая равна 5 ч.
Смотрите также архив погоды в соседних городах и на ближайших метеорологических станциях:
Партнеры нашего сайта:      
Пояснения к столбцам:
  • Ветер - указаны скорость ветра в м/с - средняя за 10 мин, порывы в срок и между сроками (в фигурных скобках) и направление, откуда дует ветер: С - северный,
  • СВ - северо-восточный, В - восточный, ЮВ - юго-восточный, Ю - южный, ЮЗ - юго-западный, З - западный, СЗ - северо-западный.
  • Видимость - горизонтальная дальность видимости в метрах или километрах. При видимости от 1 до 10 км при отсутствии осадков обычно наблюдается дымка, при ухудшении видимости до 1 км и менее - туман. В сухую погоду видимость может ухудшаться дымом, пылью или мглою.
  • Явления - указаны атмосферные явления, наблюдавшиеся в срок или в последний час перед сроком; фигурными скобками обозначены явления, наблюдавшиеся между сроками (за 1-3 часа до срока); квадратными скобками обозначены град или гололедные отложения с указанием их диаметра в мм.
  • Облачность - указаны через наклонную черту общая и нижняя облачность в баллах и высота нижней границы облаков в метрах; квадратными скобками обозначены формы облаков: Ci - перистые, Cs - перисто-слоистые, Cc - перисто-кучевые, Ac - высококучевые, As - высокослоистые, Sc - слоисто-кучевые, Ns - слоисто-дождевые, Cu - кучевые, Cb - кучево-дождевые. Подробнее классификацию облаков см. в Атласе облаков (PDF).
  • T - Температура воздуха - температура, измеренная на высоте 2 м над землей.
  • Td - Температура точки росы - температура, при понижении до которой содержащийся в воздухе водяной пар достигнет насыщения.
  • f - Относительная влажность воздуха - влажноcть воздуха, измеренная на высоте 2 м над землей.
  • Te - Эффективная температура - температура, которую ощущает одетый по сезону человек в тени. Характеристика душности погоды. При расчете учитывается влияние влажности воздуха и скорости ветра на теплоощущения человека.
  • Tes - Эффективная температура на солнце - температура, которую ощущает человек, с поправкой на солнечный нагрев. Характеристика знойности погоды. Зависит от высоты солнца над горизонтом, облачности и скорости ветра. Ночью, в пасмурную погоду, а также при ветре 12 м/с и более поправка равна нулю.
  • P - Атмосферное давление - приведенное к уровню моря атмосферное давление.
  • Po - Атмосферное давление - измеренное на уровне метеостанции атмосферное давление.
  • Tmin - Минимальная температура - минимум температуры воздуха на высоте 2 м над землей.
  • Tmax - Максимальная температура - максимум температуры воздуха на высоте 2 м над землей.
  • R - Количество осадков - Количество выпавших осадков за период времени, мм. При наведении курсора мыши на число - период времени, за который выпало указанное количество осадков.
  • R24 - Количество осадков - Количество выпавших осадков за 24 часа, мм.
  • S - Снежный покров - Высота снежного покрова, см. При наведении курсора мыши на число - состояние снежного покрова и степень покрытия местности в баллах.